Wind_Speed
19 18 14 13 13 11 9 9 10 8 13 7 5 4 2 1 2 2 3 4 6 4 3 6 4 2 3 5 10 17 21 24 12 11 17 27 32 34 34 42 50 45 40
19 16 15 14 12 11 9 10 12 9 11 7 5 6 2 2 2 1 2 8 5 4 4 4 2 2 5 10 17 24 28 25 29 18 23 22 33 38 39 36 39 40 37
20 17 15 17 13 10 12 11 12 11 8 5 2 9 4 3 3 3 2 5 7 3 4 3 7 8 11 18 22 25 26 28 27 29 22 25 32 40 38 35 38 38 34
17 20 19 15 12 13 13 12 14 10 6 3 9 8 7 7 4 3 1 2 4 7 4 6 8 11 17 26 27 27 29 30 28 29 26 30 30 31 35 33 32 35 32
23 23 19 14 15 15 12 12 10 10 7 7 10 11 10 4 9 8 8 6 11 10 9 11 14 15 18 23 30 29 30 29 29 30 23 30 29 28 26 28 29 26 27
25 23 20 18 16 12 12 11 10 8 11 10 9 13 8 7 7 8 9 9 11 11 14 14 17 18 19 17 27 30 35 29 27 25 23 24 26 27 31 30 29 24 11
24 22 22 15 16 14 12 13 10 10 9 11 10 9 7 6 6 8 10 11 14 13 16 22 21 20 24 27 29 32 25 34 36 36 28 27 29 33 33 28 23 19 18
18 21 21 21 18 15 14 14 11 10 9 9 12 9 7 7 7 7 12 14 17 16 16 22 26 25 30 33 34 29 28 31 32 30 38 38 41 38 34 34 27 21 26
20 24 25 22 18 16 14 13 10 9 10 10 11 9 7 9 8 9 14 16 16 18 20 22 26 29 30 32 34 30 29 27 29 29 32 33 36 36 35 33 24 26 19
25 26 26 21 18 19 13 12 8 8 10 13 15 10 8 12 9 10 14 19 20 20 19 22 25 29 30 31 34 32 25 27 27 27 27 30 30 29 34 25 26 25 21
29 30 27 24 16 18 16 12 10 11 15 17 17 12 10 11 8 12 16 21 22 23 23 24 25 26 26 27 30 29 29 29 27 26 25 28 28 25 22 21 17 24 26
29 30 27 23 22 19 15 13 15 17 19 18 18 14 11 11 10 14 13 19 21 23 23 26 25 24 24 24 26 23 26 30 26 26 22 23 24 25 19 22 14 19 21
31 31 32 29 25 20 17 20 18 19 21 21 20 16 13 13 14 13 15 18 19 21 23 24 22 22 23 23 22 25 27 27 27 26 20 20 23 24 20 19 15 14 17
29 34 31 29 25 21 18 18 19 19 20 21 20 19 16 15 15 14 16 21 20 24 22 21 21 23 22 23 24 30 29 31 32 30 26 22 19 22 23 19 18 17 18
32 32 29 30 29 24 19 17 17 19 22 25 24 24 24 20 19 20 24 23 25 27 26 23 22 22 19 29 33 32 30 32 29 29 29 26 23 24 25 25 23 17 16
28 27 28 29 29 28 22 11 13 12 18 21 22 25 20 20 25 23 20 22 24 26 26 24 23 24 26 30 29 31 31 31 29 28 28 27 28 28 28 26 27 26 25
27 28 30 28 30 26 21 18 19 15 18 22 20 22 23 22 26 28 23 22 24 24 23 21 21 24 28 31 31 30 29 33 28 29 31 31 31 32 31 31 30 28 28
32 34 32 28 28 25 25 23 22 24 19 16 18 27 26 24 28 31 26 24 27 24 23 22 20 23 28 29 30 32 32 29 27 28 33 36 36 33 34 29 32 33 30
33 33 31 30 27 30 26 27 27 25 24 21 19 21 30 28 31 35 28 28 32 30 26 25 23 23 26 30 31 31 29 25 24 25 19 33 39 38 35 34 34 36 32
35 34 32 29 29 30 30 27 26 26 26 27 27 30 34 32 34 35 34 33 33 32 34 31 29 24 29 30 30 35 34 32 32 30 29 27 31 35 35 35 36 36 36
31 33 34 28 30 27 31 28 31 26 25 25 31 35 38 39 34 37 37 36 34 34 36 36 36 33 30 26 35 33 33 36 36 36 38 37 36 33 36 36 34 34 35
32 33 34 31 27 27 27 34 29 30 29 27 27 35 39 40 37 37 39 41 42 39 36 35 35 37 37 34 31 32 39 38 36 34 37 40 41 40 36 32 34 34 31
25 30 31 32 31 31 25 31 35 30 32 32 30 31 43 41 35 37 40 43 44 43 44 39 34 36 36 35 36 37 34 38 41 39 39 37 36 37 37 37 33 29 27
14 19 25 28 29 30 30 26 33 36 33 33 31 37 43 45 39 38 41 43 44 46 45 46 48 44 40 35 37 38 36 37 35 34 37 38 37 38 37 36 36 34 31
22 19 13 24 28 31 28 33 31 34 36 34 35 33 39 42 42 42 41 42 42 42 43 42 42 42 45 50 47 41 37 34 37 40 38 37 37 37 37 38 36 34 32
22 22 20 16 16 29 31 29 33 35 37 36 37 37 36 39 42 42 40 41 40 41 41 43 43 42 41 41 40 42 45 41 38 36 35 36 37 37 37 38 37 37 34
Wind_Direction
152 154 157 153 144 147 136 139 152 165 167 183 196 194 142 39 85 146 179 210 215 207 198 151 143 170 167 177 177 175 157 138 124 108 118 133 134 127 123 131 137 137 142
164 170 165 148 153 145 151 146 160 160 188 207 238 227 157 78 88 66 209 218 224 68 104 153 163 121 133 151 148 140 132 134 129 119 120 122 122 124 128 125 132 138 136
166 163 159 147 147 156 164 162 170 186 196 177 277 152 141 105 77 21 127 203 205 196 81 69 152 145 124 144 141 122 124 122 123 122 115 112 118 123 122 128 131 128 135
170 164 160 152 156 164 166 177 175 187 191 179 152 135 105 83 69 59 27 179 149 149 97 110 147 148 142 123 125 132 131 126 125 124 119 120 120 120 123 124 124 132 137
158 162 161 156 156 160 172 182 176 186 196 147 135 118 121 99 57 50 74 114 127 125 113 109 115 142 138 137 139 140 137 134 135 136 127 128 126 126 129 128 126 129 135
159 156 153 148 153 158 175 177 183 191 163 152 140 137 114 98 68 55 99 108 129 128 124 113 126 128 133 141 149 143 143 134 136 135 124 133 131 135 140 141 141 137 134
157 157 154 153 159 161 174 165 166 149 157 143 146 141 118 95 82 62 115 120 115 122 122 130 130 128 130 131 137 133 127 140 143 139 133 140 140 145 142 142 145 145 145
161 157 148 159 163 166 166 169 165 153 155 145 143 132 123 108 107 86 120 124 119 116 129 135 135 138 135 131 131 128 128 139 144 148 149 150 157 156 152 149 145 146 149
151 151 153 156 167 169 163 162 165 163 164 169 160 149 137 125 115 119 133 126 123 127 131 140 144 144 144 142 138 127 136 142 154 162 159 156 160 163 155 149 148 142 150
154 158 157 160 156 156 157 165 163 171 181 183 157 153 141 140 129 135 144 134 127 131 133 144 152 149 154 151 145 141 137 153 154 156 157 162 161 155 158 159 163 155 160
158 159 161 165 163 153 157 160 151 144 139 144 142 143 143 145 137 140 144 145 138 135 139 144 152 154 161 166 157 151 157 158 157 154 153 158 157 159 169 174 173 177 170
160 158 161 160 150 154 152 155 157 148 139 141 140 132 140 147 135 141 139 149 146 141 145 151 152 157 163 168 170 163 157 161 158 157 154 167 177 184 185 184 185 197 207
156 153 149 152 155 158 152 154 157 158 150 146 144 143 144 150 145 137 141 149 152 146 143 145 152 157 160 160 165 168 157 155 161 165 168 178 192 195 195 200 214 208 224
155 155 159 158 157 160 161 167 167 166 165 164 158 154 156 157 153 150 144 146 150 144 147 149 151 150 154 164 163 164 171 172 177 184 191 193 196 198 206 211 201 203 212
154 161 162 161 163 169 171 190 193 192 184 177 173 169 162 167 170 157 155 155 152 149 146 145 152 164 158 157 165 171 178 183 187 195 198 202 205 204 210 207 211 203 204
155 164 169 165 171 176 178 170 193 177 195 191 184 182 181 173 169 163 160 161 157 155 151 156 164 170 174 174 179 185 185 192 204 205 208 211 206 208 206 210 212 210 209
163 167 175 173 175 179 177 155 142 135 151 192 198 186 185 169 174 170 167 169 167 165 166 168 172 180 182 186 193 199 206 208 212 218 211 211 211 207 208 202 205 210 218
176 177 178 183 189 185 191 188 174 160 152 144 168 189 182 174 173 171 171 178 177 185 188 190 193 191 190 196 205 210 214 229 226 211 213 208 208 204 203 207 209 213 217
181 183 187 191 194 201 199 197 195 189 178 165 160 173 178 179 176 181 182 186 185 193 198 206 212 212 209 209 210 215 222 224 219 224 215 206 205 206 208 213 218 223 222
183 189 191 198 202 202 205 200 193 188 182 180 175 177 179 181 184 188 191 196 197 202 207 210 213 219 223 217 220 220 220 222 222 224 228 225 216 217 219 220 222 221 222
183 187 196 196 209 205 207 208 207 186 187 184 191 192 191 190 192 196 200 204 208 211 215 218 222 225 231 228 221 223 224 226 227 225 226 229 231 227 227 228 228 226 225
183 189 195 199 207 216 210 211 211 208 191 193 193 200 202 196 198 202 207 212 215 218 222 227 229 233 235 236 235 234 227 229 229 229 230 232 234 234 231 229 230 231 226
193 187 195 199 206 216 221 216 212 215 211 197 196 193 202 202 205 207 213 219 223 226 225 223 228 234 236 238 241 243 241 238 233 232 234 232 228 228 230 231 230 227 216
5 212 199 204 204 211 218 226 213 216 218 217 205 198 203 205 208 213 217 223 227 231 232 232 231 231 233 235 237 238 241 243 244 240 236 235 233 233 232 230 230 231 226
352 344 353 212 205 210 217 220 223 214 217 218 220 218 210 209 211 215 218 220 224 227 233 234 235 237 237 237 238 239 242 244 243 242 241 239 238 237 231 231 229 226 222
348 350 336 348 230 214 211 216 220 217 214 217 220 222 226 218 219 219 219 220 221 225 228 233 237 239 241 242 242 242 242 244 247 246 242 238 238 235 232 231 230 227 217
Height
706 710 713 716 719 722 723 725 727 729 729 731 731 731 732 732 732 731 731 731 731 732 733 735 735 735 735 736 737 740 744 748 756 765 768 770 772 777 781 786 787 802 809
707 710 712 716 718 721 724 725 727 729 730 731 731 732 732 732 731 730 730 729 730 732 732 734 735 735 735 736 738 740 743 749 754 764 770 774 775 781 786 792 797 806 814
707 709 712 715 719 722 724 726 727 728 729 730 731 732 732 732 731 729 729 728 729 731 733 733 733 734 735 737 740 744 749 754 760 764 772 776 782 785 791 800 803 811 820
704 708 712 715 718 722 724 726 728 729 730 730 731 731 732 732 732 730 728 728 728 731 732 732 732 734 735 738 741 747 752 756 764 769 775 780 785 792 797 802 810 818 824
703 707 711 715 719 722 724 727 728 729 730 731 731 732 733 732 732 730 729 729 730 731 733 733 734 735 738 741 744 749 755 760 766 772 777 784 790 796 802 808 813 820 827
703 707 711 715 719 722 725 727 728 729 730 731 732 732 733 734 734 732 731 731 731 732 734 736 738 739 742 744 748 751 755 759 766 772 778 785 792 797 804 809 815 822 829
703 707 712 716 719 722 725 727 728 729 731 731 732 733 734 734 735 734 733 733 733 734 735 737 740 743 745 749 753 757 762 766 769 774 781 787 793 798 803 811 817 823 827
703 707 711 716 719 722 724 726 728 729 731 732 733 733 735 736 736 735 736 736 737 737 737 740 743 747 751 754 758 763 768 772 775 779 782 789 794 800 805 811 820 825 831
702 706 711 715 718 721 723 726 728 730 731 733 733 734 736 737 737 737 737 739 740 741 742 744 747 750 755 758 762 767 773 778 783 786 790 794 799 804 810 816 822 826 833
701 706 710 714 718 722 724 726 728 729 730 732 734 736 736 737 738 739 740 741 742 743 746 749 752 755 759 762 765 771 778 783 787 791 796 801 806 811 816 820 822 825 830
699 704 709 713 716 720 723 726 728 729 731 733 734 736 737 739 739 741 743 743 745 747 750 753 757 761 764 768 771 776 780 786 791 795 800 805 810 814 818 821 824 825 827
697 703 708 713 716 720 723 726 728 730 731 734 736 738 739 741 742 743 745 746 748 750 753 757 760 764 768 771 775 780 784 788 793 798 802 808 811 813 816 819 823 825 826
696 702 708 713 717 720 722 726 728 730 731 734 736 739 740 742 743 745 747 749 751 753 756 759 763 767 771 775 779 783 788 792 796 801 804 807 810 813 816 818 820 823 825
695 701 707 711 717 720 723 725 727 729 732 734 736 738 740 743 744 746 748 750 753 755 759 763 767 771 774 777 782 786 789 792 795 798 802 805 808 810 813 817 819 820 822
693 700 705 709 715 720 722 724 726 727 728 731 733 735 738 742 744 747 748 750 754 757 761 766 769 773 776 779 783 785 789 793 795 797 800 803 806 809 812 815 818 820 820
692 698 703 707 713 717 720 723 725 725 726 729 732 734 738 740 744 748 752 754 757 759 763 766 770 773 775 778 781 784 787 790 793 797 799 802 803 806 809 812 814 815 817
689 695 700 705 709 714 717 721 723 726 726 729 730 734 737 738 744 748 752 755 759 761 763 766 768 770 773 775 778 782 784 786 790 793 795 797 799 801 804 807 810 812 812
686 691 696 701 706 710 714 717 720 723 726 728 729 732 735 738 742 748 752 756 759 762 763 765 767 770 772 774 777 779 781 782 784 786 788 790 793 796 799 802 802 803 806
683 688 692 697 701 705 709 713 715 718 721 724 728 731 734 738 741 745 748 750 753 757 759 762 764 766 769 771 772 774 776 778 780 781 783 785 787 789 791 793 796 797 799
677 683 689 693 698 701 703 707 710 713 717 720 723 727 731 735 738 740 743 746 748 751 754 756 757 760 762 763 766 767 770 771 773 775 777 779 782 783 785 786 788 790 793
672 678 683 688 691 695 698 700 703 707 711 714 716 719 722 727 731 735 738 740 742 744 746 748 750 752 754 756 758 759 761 763 766 769 771 773 774 776 778 780 781 783 785
665 671 676 681 685 688 691 694 696 699 703 706 710 713 717 720 723 727 729 731 733 736 739 741 744 745 746 747 750 751 752 754 756 759 761 763 765 767 770 772 773 775 776
663 664 669 672 676 682 684 686 688 691 694 697 701 704 709 713 715 717 719 721 724 727 730 733 735 736 737 739 741 742 743 744 747 749 750 752 754 756 760 763 766 767 769
665 665 666 668 669 673 676 679 680 683 685 688 691 693 695 700 704 706 708 710 712 715 717 720 723 725 728 729 730 732 733 735 738 740 742 744 746 749 751 753 755 757 759
664 663 664 664 664 666 668 670 673 674 677 680 683 684 686 689 692 694 697 699 702 705 706 708 710 712 714 717 720 722 724 726 729 731 733 734 736 739 742 744 746 748 751
664 663 661 661 660 658 659 661 663 666 667 670 673 676 678 679 681 684 687 690 692 694 697 699 700 702 704 706 709 712 715 718 720 722 724 725 726 728 731 735 737 738 740